Time,TemperatureF,DewpointF,PressureIn,WindDirection,WindDirectionDegrees,WindSpeedMPH,WindSpeedGustMPH,Humidity,HourlyPrecipIn,Conditions,Clouds,dailyrainin,SoftwareType,DateUTC
2013-05-10 00:02:00,52.0,-99.9,30.16,West,260,9.0,17.0,-999,-99.99,,,-99.99,,2013-05-10 07:02:00,
2013-05-10 00:12:00,52.0,-99.9,30.16,West,273,6.0,10.0,-999,-99.99,,,-99.99,,2013-05-10 07:12:00,
2013-05-10 00:22:00,52.0,-99.9,30.17,WSW,255,10.0,15.0,-999,-99.99,,,-99.99,,2013-05-10 07:22:00,
2013-05-10 00:32:00,52.0,-99.9,30.17,WSW,255,10.0,15.0,-999,-99.99,,,-99.99,,2013-05-10 07:32:00,
2013-05-10 00:42:00,52.0,-99.9,30.17,West,263,5.0,12.0,-999,-99.99,,,-99.99,,2013-05-10 07:42:00,
2013-05-10 00:52:00,52.0,-99.9,30.17,WSW,246,6.0,17.0,-999,-99.99,,,-99.99,,2013-05-10 07:52:00,
2013-05-10 01:02:00,52.0,-99.9,30.17,WSW,252,7.0,14.0,-999,-99.99,,,-99.99,,2013-05-10 08:02:00,
2013-05-10 01:12:00,52.0,-99.9,30.17,West,261,5.0,14.0,-999,-99.99,,,-99.99,,2013-05-10 08:12:00,
2013-05-10 01:22:00,51.0,-99.9,30.17,WSW,248,9.0,15.0,-999,-99.99,,,-99.99,,2013-05-10 08:22:00,
2013-05-10 01:32:00,51.0,-99.9,30.17,WSW,254,9.0,18.0,-999,-99.99,,,-99.99,,2013-05-10 08:32:00,
2013-05-10 01:42:00,51.0,-99.9,30.18,WSW,258,8.0,17.0,-999,-99.99,,,-99.99,,2013-05-10 08:42:00,
2013-05-10 01:52:00,51.0,-99.9,30.17,WSW,254,7.0,18.0,-999,-99.99,,,-99.99,,2013-05-10 08:52:00,
2013-05-10 02:02:00,51.0,-99.9,30.17,West,260,8.0,16.0,-999,-99.99,,,-99.99,,2013-05-10 09:02:00,
2013-05-10 02:11:00,51.0,-99.9,30.16,WSW,250,6.0,11.0,-999,-99.99,,,-99.99,,2013-05-10 09:11:00,
2013-05-10 02:22:00,51.0,-99.9,30.16,WSW,253,4.0,13.0,-999,-99.99,,,-99.99,,2013-05-10 09:22:00,
2013-05-10 02:33:00,51.0,-99.9,30.16,WSW,253,4.0,13.0,-999,-99.99,,,-99.99,,2013-05-10 09:33:00,
2013-05-10 02:43:00,51.0,-99.9,30.16,WSW,249,5.0,11.0,-999,-99.99,,,-99.99,,2013-05-10 09:43:00,
2013-05-10 02:53:00,51.0,-99.9,30.15,West,269,7.0,13.0,-999,-99.99,,,-99.99,,2013-05-10 09:53:00,
2013-05-10 03:03:00,51.0,-99.9,30.15,WSW,242,8.0,13.0,-999,-99.99,,,-99.99,,2013-05-10 10:03:00,
2013-05-10 03:12:00,51.0,-99.9,30.15,WSW,258,10.0,15.0,-999,-99.99,,,-99.99,,2013-05-10 10:12:00,
2013-05-10 03:23:00,51.0,-99.9,30.15,WSW,254,9.0,12.0,-999,-99.99,,,-99.99,,2013-05-10 10:23:00,
2013-05-10 03:33:00,51.0,-99.9,30.15,West,271,6.0,10.0,-999,-99.99,,,-99.99,,2013-05-10 10:33:00,
2013-05-10 03:42:00,51.0,-99.9,30.14,WSW,253,6.0,11.0,-999,-99.99,,,-99.99,,2013-05-10 10:42:00,
2013-05-10 03:53:00,51.0,-99.9,30.14,West,270,5.0,9.0,-999,-99.99,,,-99.99,,2013-05-10 10:53:00,
2013-05-10 04:02:00,51.0,-99.9,30.14,SW,223,3.0,7.0,-999,-99.99,,,-99.99,,2013-05-10 11:02:00,
2013-05-10 04:12:00,51.0,-99.9,30.14,WSW,255,9.0,14.0,-999,-99.99,,,-99.99,,2013-05-10 11:12:00,
2013-05-10 04:22:00,51.0,-99.9,30.13,West,259,6.0,10.0,-999,-99.99,,,-99.99,,2013-05-10 11:22:00,
2013-05-10 04:32:00,51.0,-99.9,30.12,West,269,5.0,12.0,-999,-99.99,,,-99.99,,2013-05-10 11:32:00,
2013-05-10 04:42:00,51.0,-99.9,30.13,WSW,250,6.0,10.0,-999,-99.99,,,-99.99,,2013-05-10 11:42:00,
2013-05-10 04:52:00,51.0,-99.9,30.12,WSW,248,9.0,14.0,-999,-99.99,,,-99.99,,2013-05-10 11:52:00,
2013-05-10 05:02:00,51.0,-99.9,30.12,WSW,248,9.0,14.0,-999,-99.99,,,-99.99,,2013-05-10 12:02:00,
2013-05-10 05:12:00,51.0,-99.9,30.12,West,270,3.0,12.0,-999,-99.99,,,-99.99,,2013-05-10 12:12:00,
2013-05-10 05:22:00,51.0,-99.9,30.12,West,265,6.0,10.0,-999,-99.99,,,-99.99,,2013-05-10 12:22:00,
2013-05-10 05:32:00,51.0,-99.9,30.12,West,278,4.0,9.0,-999,-99.99,,,-99.99,,2013-05-10 12:32:00,
2013-05-10 05:42:00,51.0,-99.9,30.12,West,272,4.0,9.0,-999,-99.99,,,-99.99,,2013-05-10 12:42:00,
2013-05-10 05:52:00,51.0,-99.9,30.12,West,266,7.0,11.0,-999,-99.99,,,-99.99,,2013-05-10 12:52:00,
2013-05-10 06:01:00,51.0,-99.9,30.12,West,264,5.0,10.0,-999,-99.99,,,-99.99,,2013-05-10 13:01:00,
2013-05-10 06:11:00,51.0,-99.9,30.12,WSW,247,5.0,10.0,-999,-99.99,,,-99.99,,2013-05-10 13:11:00,
2013-05-10 06:21:00,51.0,-99.9,30.12,West,277,5.0,10.0,-999,-99.99,,,-99.99,,2013-05-10 13:21:00,
2013-05-10 06:32:00,51.0,-99.9,30.13,WSW,250,6.0,10.0,-999,-99.99,,,-99.99,,2013-05-10 13:32:00,
2013-05-10 06:42:00,52.0,-99.9,30.13,West,273,3.0,8.0,-999,-99.99,,,-99.99,,2013-05-10 13:42:00,
2013-05-10 06:52:00,52.0,-99.9,30.13,West,265,6.0,11.0,-999,-99.99,,,-99.99,,2013-05-10 13:52:00,
2013-05-10 07:02:00,51.0,-99.9,30.14,WSW,245,3.0,8.0,-999,-99.99,,,-99.99,,2013-05-10 14:02:00,
2013-05-10 07:11:00,52.0,-99.9,30.14,West,267,5.0,9.0,-999,-99.99,,,-99.99,,2013-05-10 14:11:00,
2013-05-10 07:22:00,51.0,-99.9,30.14,West,264,7.0,11.0,-999,-99.99,,,-99.99,,2013-05-10 14:22:00,
2013-05-10 07:32:00,51.0,-99.9,30.15,West,273,6.0,12.0,-999,-99.99,,,-99.99,,2013-05-10 14:32:00,
2013-05-10 07:42:00,51.0,-99.9,30.15,West,260,10.0,13.0,-999,-99.99,,,-99.99,,2013-05-10 14:42:00,
2013-05-10 07:52:00,52.0,-99.9,30.15,West,267,4.0,10.0,-999,-99.99,,,-99.99,,2013-05-10 14:52:00,
2013-05-10 08:02:00,52.0,-99.9,30.15,WSW,243,7.0,10.0,-999,-99.99,,,-99.99,,2013-05-10 15:02:00,
2013-05-10 08:20:00,-999.0,-99.9,30.15,West,272,8.0,13.0,-999,-99.99,,,-99.99,,2013-05-10 15:20:00,
2013-05-10 08:32:00,52.0,-99.9,30.15,West,263,4.0,10.0,-999,-99.99,,,-99.99,,2013-05-10 15:32:00,
2013-05-10 08:43:00,52.0,-99.9,30.15,West,279,3.0,6.0,-999,-99.99,,,-99.99,,2013-05-10 15:43:00,
2013-05-10 08:53:00,52.0,-99.9,30.15,West,262,4.0,9.0,-999,-99.99,,,-99.99,,2013-05-10 15:53:00,
2013-05-10 09:02:00,53.0,-99.9,30.16,South,174,3.0,5.0,-999,-99.99,,,-99.99,,2013-05-10 16:02:00,
2013-05-10 09:12:00,53.0,-99.9,30.16,SSW,208,2.0,4.0,-999,-99.99,,,-99.99,,2013-05-10 16:12:00,
2013-05-10 09:23:00,52.0,-99.9,30.16,SSE,150,9.0,13.0,-999,-99.99,,,-99.99,,2013-05-10 16:23:00,
2013-05-10 09:33:00,52.0,-99.9,30.16,SE,127,9.0,10.0,-999,-99.99,,,-99.99,,2013-05-10 16:33:00,
2013-05-10 09:43:00,52.0,-99.9,30.16,SE,135,9.0,11.0,-999,-99.99,,,-99.99,,2013-05-10 16:43:00,
2013-05-10 09:53:00,53.0,-99.9,30.15,ESE,122,8.0,9.0,-999,-99.99,,,-99.99,,2013-05-10 16:53:00,
2013-05-10 10:02:00,53.0,-99.9,30.16,SE,129,8.0,11.0,-999,-99.99,,,-99.99,,2013-05-10 17:02:00,
2013-05-10 10:12:00,54.0,-99.9,30.16,SE,133,10.0,12.0,-999,-99.99,,,-99.99,,2013-05-10 17:12:00,
2013-05-10 10:22:00,55.0,-99.9,30.16,NNW,332,3.0,5.0,-999,-99.99,,,-99.99,,2013-05-10 17:22:00,
2013-05-10 10:32:00,55.0,-99.9,30.16,SSW,196,2.0,6.0,-999,-99.99,,,-99.99,,2013-05-10 17:32:00,
2013-05-10 10:42:00,55.0,-99.9,30.17,WSW,241,5.0,11.0,-999,-99.99,,,-99.99,,2013-05-10 17:42:00,
2013-05-10 10:52:00,54.0,-99.9,30.17,West,265,10.0,13.0,-999,-99.99,,,-99.99,,2013-05-10 17:52:00,
2013-05-10 11:11:00,-999.0,-99.9,30.17,West,268,7.0,11.0,-999,-99.99,,,-99.99,,2013-05-10 18:11:00,
2013-05-10 11:22:00,55.0,-99.9,30.18,West,259,10.0,15.0,-999,-99.99,,,-99.99,,2013-05-10 18:22:00,
2013-05-10 11:35:00,54.0,-99.9,30.18,West,263,10.0,15.0,-999,-99.99,,,-99.99,,2013-05-10 18:35:00,
2013-05-10 11:43:00,54.0,-99.9,30.18,West,268,7.0,15.0,-999,-99.99,,,-99.99,,2013-05-10 18:43:00,
2013-05-10 11:54:00,54.0,-99.9,30.18,West,266,10.0,13.0,-999,-99.99,,,-99.99,,2013-05-10 18:54:00,
2013-05-10 12:02:00,54.0,-99.9,30.18,West,265,9.0,14.0,-999,-99.99,,,-99.99,,2013-05-10 19:02:00,
2013-05-10 12:11:00,56.0,-99.9,30.18,WSW,243,4.0,11.0,-999,-99.99,,,-99.99,,2013-05-10 19:11:00,
2013-05-10 12:22:00,55.0,-99.9,30.17,West,272,8.0,14.0,-999,-99.99,,,-99.99,,2013-05-10 19:22:00,
2013-05-10 12:32:00,56.0,-99.9,30.17,WSW,247,7.0,12.0,-999,-99.99,,,-99.99,,2013-05-10 19:32:00,
2013-05-10 12:42:00,56.0,-99.9,30.17,West,264,6.0,13.0,-999,-99.99,,,-99.99,,2013-05-10 19:42:00,
2013-05-10 12:52:00,55.0,-99.9,30.18,WSW,245,7.0,13.0,-999,-99.99,,,-99.99,,2013-05-10 19:52:00,
2013-05-10 13:02:00,55.0,-99.9,30.17,WSW,254,7.0,15.0,-999,-99.99,,,-99.99,,2013-05-10 20:02:00,
2013-05-10 13:12:00,56.0,-99.9,30.17,SW,232,8.0,13.0,-999,-99.99,,,-99.99,,2013-05-10 20:12:00,
2013-05-10 13:22:00,55.0,-99.9,30.17,SW,235,13.0,19.0,-999,-99.99,,,-99.99,,2013-05-10 20:22:00,
2013-05-10 13:32:00,55.0,-99.9,30.17,WSW,241,11.0,18.0,-999,-99.99,,,-99.99,,2013-05-10 20:32:00,
2013-05-10 13:42:00,55.0,-99.9,30.17,WSW,244,9.0,16.0,-999,-99.99,,,-99.99,,2013-05-10 20:42:00,
2013-05-10 13:52:00,56.0,-99.9,30.16,WSW,237,9.0,15.0,-999,-99.99,,,-99.99,,2013-05-10 20:52:00,
2013-05-10 14:02:00,56.0,-99.9,30.16,SW,232,8.0,15.0,-999,-99.99,,,-99.99,,2013-05-10 21:02:00,
2013-05-10 14:11:00,56.0,-99.9,30.16,WSW,237,8.0,13.0,-999,-99.99,,,-99.99,,2013-05-10 21:11:00,
2013-05-10 14:25:00,57.0,-99.9,30.16,WSW,248,8.0,15.0,-999,-99.99,,,-99.99,,2013-05-10 21:25:00,
2013-05-10 14:32:00,56.0,-99.9,30.16,WSW,242,9.0,16.0,-999,-99.99,,,-99.99,,2013-05-10 21:32:00,
2013-05-10 14:43:00,57.0,-99.9,30.16,SW,235,6.0,19.0,-999,-99.99,,,-99.99,,2013-05-10 21:43:00,
2013-05-10 14:53:00,57.0,-99.9,30.16,SW,224,8.0,16.0,-999,-99.99,,,-99.99,,2013-05-10 21:53:00,
2013-05-10 15:03:00,58.0,-99.9,30.15,WSW,254,10.0,18.0,-999,-99.99,,,-99.99,,2013-05-10 22:03:00,
2013-05-10 15:13:00,57.0,-99.9,30.15,WSW,255,9.0,20.0,-999,-99.99,,,-99.99,,2013-05-10 22:13:00,
2013-05-10 15:22:00,56.0,-99.9,30.15,West,261,12.0,23.0,-999,-99.99,,,-99.99,,2013-05-10 22:22:00,
2013-05-10 15:32:00,56.0,-99.9,30.15,West,261,9.0,19.0,-999,-99.99,,,-99.99,,2013-05-10 22:32:00,
2013-05-10 15:42:00,57.0,-99.9,30.15,SW,218,10.0,22.0,-999,-99.99,,,-99.99,,2013-05-10 22:42:00,
2013-05-10 15:53:00,57.0,-99.9,30.14,WSW,241,8.0,13.0,-999,-99.99,,,-99.99,,2013-05-10 22:53:00,
2013-05-10 16:02:00,56.0,-99.9,30.14,West,259,13.0,27.0,-999,-99.99,,,-99.99,,2013-05-10 23:02:00,
2013-05-10 16:12:00,56.0,-99.9,30.14,WSW,243,10.0,19.0,-999,-99.99,,,-99.99,,2013-05-10 23:12:00,
2013-05-10 16:22:00,56.0,-99.9,30.13,SW,235,12.0,20.0,-999,-99.99,,,-99.99,,2013-05-10 23:22:00,
2013-05-10 16:33:00,56.0,-99.9,30.12,WSW,257,13.0,21.0,-999,-99.99,,,-99.99,,2013-05-10 23:33:00,
2013-05-10 16:42:00,57.0,-99.9,30.12,WSW,250,12.0,19.0,-999,-99.99,,,-99.99,,2013-05-10 23:42:00,
2013-05-10 16:52:00,56.0,-99.9,30.12,WSW,257,17.0,23.0,-999,-99.99,,,-99.99,,2013-05-10 23:52:00,
2013-05-10 17:02:00,56.0,-99.9,30.11,WSW,245,9.0,19.0,-999,-99.99,,,-99.99,,2013-05-11 00:02:00,
2013-05-10 17:11:00,56.0,-99.9,30.11,WSW,241,12.0,22.0,-999,-99.99,,,-99.99,,2013-05-11 00:11:00,
2013-05-10 17:22:00,57.0,-99.9,30.10,WSW,247,10.0,18.0,-999,-99.99,,,-99.99,,2013-05-11 00:22:00,
2013-05-10 17:32:00,58.0,-99.9,30.11,WSW,238,10.0,17.0,-999,-99.99,,,-99.99,,2013-05-11 00:32:00,
2013-05-10 17:42:00,56.0,-99.9,30.10,WSW,244,16.0,22.0,-999,-99.99,,,-99.99,,2013-05-11 00:42:00,
2013-05-10 17:52:00,58.0,-99.9,30.11,WSW,238,6.0,15.0,-999,-99.99,,,-99.99,,2013-05-11 00:52:00,
2013-05-10 18:01:00,56.0,-99.9,30.11,WSW,254,14.0,22.0,-999,-99.99,,,-99.99,,2013-05-11 01:01:00,
2013-05-10 18:11:00,56.0,-99.9,30.11,SW,236,11.0,18.0,-999,-99.99,,,-99.99,,2013-05-11 01:11:00,
2013-05-10 18:21:00,54.0,-99.9,30.11,West,260,17.0,26.0,-999,-99.99,,,-99.99,,2013-05-11 01:21:00,
2013-05-10 18:32:00,54.0,-99.9,30.11,West,260,13.0,23.0,-999,-99.99,,,-99.99,,2013-05-11 01:32:00,
2013-05-10 18:42:00,54.0,-99.9,30.11,WSW,252,13.0,24.0,-999,-99.99,,,-99.99,,2013-05-11 01:42:00,
2013-05-10 18:52:00,54.0,-99.9,30.11,WSW,247,15.0,24.0,-999,-99.99,,,-99.99,,2013-05-11 01:52:00,
2013-05-10 19:02:00,53.0,-99.9,30.10,WSW,248,15.0,28.0,-999,-99.99,,,-99.99,,2013-05-11 02:02:00,
2013-05-10 19:12:00,54.0,-99.9,30.10,WSW,251,13.0,26.0,-999,-99.99,,,-99.99,,2013-05-11 02:12:00,
2013-05-10 19:22:00,53.0,-99.9,30.10,WSW,254,16.0,26.0,-999,-99.99,,,-99.99,,2013-05-11 02:22:00,
2013-05-10 19:32:00,54.0,-99.9,30.10,WSW,255,13.0,24.0,-999,-99.99,,,-99.99,,2013-05-11 02:32:00,
2013-05-10 19:42:00,54.0,-99.9,30.10,WSW,255,13.0,24.0,-999,-99.99,,,-99.99,,2013-05-11 02:42:00,
2013-05-10 19:52:00,53.0,-99.9,30.11,SW,230,9.0,16.0,-999,-99.99,,,-99.99,,2013-05-11 02:52:00,
2013-05-10 20:01:00,53.0,-99.9,30.11,WSW,248,7.0,13.0,-999,-99.99,,,-99.99,,2013-05-11 03:01:00,
2013-05-10 20:11:00,53.0,-99.9,30.11,SW,225,8.0,16.0,-999,-99.99,,,-99.99,,2013-05-11 03:11:00,
2013-05-10 20:21:00,53.0,-99.9,30.12,SW,214,8.0,13.0,-999,-99.99,,,-99.99,,2013-05-11 03:21:00,
2013-05-10 20:33:00,53.0,-99.9,30.12,SW,229,8.0,15.0,-999,-99.99,,,-99.99,,2013-05-11 03:33:00,
2013-05-10 20:43:00,53.0,-99.9,30.12,SW,227,10.0,14.0,-999,-99.99,,,-99.99,,2013-05-11 03:43:00,
2013-05-10 20:53:00,53.0,-99.9,30.12,WSW,247,8.0,12.0,-999,-99.99,,,-99.99,,2013-05-11 03:53:00,
2013-05-10 21:03:00,53.0,-99.9,30.12,WSW,246,9.0,15.0,-999,-99.99,,,-99.99,,2013-05-11 04:03:00,
2013-05-10 21:12:00,53.0,-99.9,30.12,SW,236,8.0,13.0,-999,-99.99,,,-99.99,,2013-05-11 04:12:00,
2013-05-10 21:23:00,53.0,-99.9,30.13,WSW,241,7.0,11.0,-999,-99.99,,,-99.99,,2013-05-11 04:23:00,
2013-05-10 21:33:00,53.0,-99.9,30.13,SW,228,7.0,16.0,-999,-99.99,,,-99.99,,2013-05-11 04:33:00,
2013-05-10 21:43:00,53.0,-99.9,30.13,SW,227,9.0,14.0,-999,-99.99,,,-99.99,,2013-05-11 04:43:00,
2013-05-10 21:52:00,53.0,-99.9,30.14,SW,234,5.0,15.0,-999,-99.99,,,-99.99,,2013-05-11 04:52:00,
2013-05-10 22:02:00,52.0,-99.9,30.14,SW,231,9.0,16.0,-999,-99.99,,,-99.99,,2013-05-11 05:02:00,
2013-05-10 22:12:00,52.0,-99.9,30.14,WSW,246,6.0,14.0,-999,-99.99,,,-99.99,,2013-05-11 05:12:00,
2013-05-10 22:22:00,52.0,-99.9,30.14,West,263,3.0,11.0,-999,-99.99,,,-99.99,,2013-05-11 05:22:00,
2013-05-10 22:32:00,52.0,-99.9,30.14,West,263,3.0,11.0,-999,-99.99,,,-99.99,,2013-05-11 05:32:00,
2013-05-10 22:43:00,52.0,-99.9,30.14,WSW,252,4.0,8.0,-999,-99.99,,,-99.99,,2013-05-11 05:43:00,
2013-05-10 22:52:00,52.0,-99.9,30.14,WSW,248,4.0,9.0,-999,-99.99,,,-99.99,,2013-05-11 05:52:00,
2013-05-10 23:02:00,52.0,-99.9,30.14,West,259,8.0,11.0,-999,-99.99,,,-99.99,,2013-05-11 06:02:00,
2013-05-10 23:12:00,52.0,-99.9,30.14,West,259,8.0,11.0,-999,-99.99,,,-99.99,,2013-05-11 06:12:00,
2013-05-10 23:22:00,52.0,-99.9,30.14,WSW,256,4.0,10.0,-999,-99.99,,,-99.99,,2013-05-11 06:22:00,
2013-05-10 23:32:00,52.0,-99.9,30.14,WSW,243,2.0,9.0,-999,-99.99,,,-99.99,,2013-05-11 06:32:00,
2013-05-10 23:42:00,52.0,-99.9,30.14,WSW,255,10.0,16.0,-999,-99.99,,,-99.99,,2013-05-11 06:42:00,
2013-05-10 23:53:00,52.0,-99.9,30.14,West,269,2.0,7.0,-999,-99.99,,,-99.99,,2013-05-11 06:53:00,